Location: Erlenbrunn
(49.1717°N, 7.6142°E)
Time: 05:19:06
(UTC+00:00)

Cosmos 2208 Rocket - Pass Details

Date: 25 November 2020
Orbit: 754 x 806 km, 74.0° (Epoch: 24 January)

Event Time Altitude Azimuth Distance (km) Brightness Sun altitude
Rises 16:36:17 0° 210° (SSW) 3,227 8.1 -9.4°
Reaches altitude 10° 16:38:39 10° 214° (SSW) 2,312 7.4 -9.7°
Maximum altitude 16:43:53 65° 296° (WNW) 857 4.4 -10.5°
Drops below altitude 10° 16:49:14 10° 19° (NNE) 2,363 6.2 -11.4°
Enters shadow 16:51:08 - 22° (NNE) 3,092 6.8 -11.7°
